Regional Weather Roundup
Issued by NWS

Home | Current Version | Previous Version | Graphics & Text | Print | Product List | Glossary On
Versions: 1 2 3 4 5 6 7 8 9 10 11 12 13 14 15 16 17 18 19 20 21 22 23 24 25 26 27 28 29 30 31 32 33 34 35 36 37 38 39 40 41 42 43 44 45 46 47 48 49 50
000
ASUS43 KLMK 172002
RWRKY
KENTUCKY REGIONAL WEATHER ROUNDUP
NATIONAL WEATHER SERVICE LOUISVILLE KY
400 PM EDT THU AUG 17 2017

NOTE "FAIR" INDICATES FEW OR NO CLOUDS BELOW 12,000 FEET
WITH NO SIGNIFICANT WEATHER AND/OR OBSTRUCTIONS TO VISIBILITY.

KYZ001>023-026-027-061>063-070>075-172100-
WESTERN AND SOUTH CENTRAL KENTUCKY

CITY           SKY/WX    TMP DP  RH WIND       PRES   REMARKS
PADUCAH        CLOUDY    84  72  67 SW13      29.89F
HENDERSON      CLOUDY    84  73  69 SW7       29.88F HX  90
OWENSBORO      PTSUNNY   88  75  65 SW13      29.86F HX  97
HOPKINSVILLE   CLOUDY    86  74  69 SW17      29.91F HX  94
BOWLING GREEN  PTSUNNY   88  74  63 SW13G22   29.93F HX  96
GLASGOW        MOSUNNY   88  71  57 SW13      29.93F HX  94
$$

KYZ024-025-028>034-038-045-046-053-172100-
NORTH CENTRAL KENTUCKY

CITY           SKY/WX    TMP DP  RH WIND       PRES   REMARKS
LOUISVILLE/SDF TSTM      81  75  82 W18       29.87R
LOUISVILLE/LOU TSTM      77  74  90 SE8G32    29.88R VSB 1/4
FORT KNOX      PTSUNNY   88  73  59 SW13G29   29.87S HX  95
$$

KYZ035>037-039>044-047>052-055>060-089>105-172100-
NORTHEAST KENTUCKY

CITY           SKY/WX    TMP DP  RH WIND       PRES   REMARKS
LEXINGTON      MOSUNNY   89  69  51 SW17G24   29.91F HX  93
COVINGTON      TSTM      76  76 100 SW8       29.88F
FRANKFORT      MOSUNNY   91  70  49 SW22      29.88F HX  96
$$

KYZ054-064>069-076>088-106>120-172100-
SOUTHEAST KENTUCKY

CITY           SKY/WX    TMP DP  RH WIND       PRES   REMARKS
JACKSON        MOSUNNY   88  74  63 CALM      29.97F HX  96
LONDON         MOSUNNY   89  68  49 SW12G18   29.97F HX  93
SOMERSET       NOT AVBL
MIDDLESBORO    PTSUNNY   86  75  69 N3        30.00F HX  94
MONTICELLO     MOCLDY    89  75  63 W15G23    29.98F HX  99
$$




USA.gov is the U.S. government's official web portal to all federal, state and local government web resources and services.